When you browse on this site, cookies collect data to enhance your experience and personalize the content and advertising you see.
Visit our Privacy Policy to learn more. By continuing to use the site, you agree to this use of cookies and data.
  • In Latvia
  • List of Countries
  • For 7 days
  • Water Temperature
  • Satellite Maps
  • Weather Map
  • Weather Widgets
  • user-avatar
    Login

    Hourly Weather Czuszow

    Today, 14 December, Friday

    Time Temperature Precipitation Wind Pressure Humidity
    00:00 0°C° 0 mm 1 mps 742 mmHg 90%
    01:00 0°C° 0 mm 1 mps 742 mmHg 90%
    02:00 -1°C° 0 mm 1 mps 742 mmHg 89%
    03:00 -1°C° 0 mm 1 mps 742 mmHg 89%
    04:00 -1°C° 0 mm 1 mps 742 mmHg 89%
    05:00 -1°C° 0 mm 1 mps 742 mmHg 89%
    06:00 -1°C° 0 mm 1 mps 742 mmHg 89%
    07:00 -1°C° 0 mm 1 mps 742 mmHg 89%
    08:00 -3°C° 0 mm 2 mps 743 mmHg 86%
    09:00 -3°C° 0 mm 2 mps 743 mmHg 82%
    10:00 -2°C° 0 mm 2 mps 743 mmHg 79%
    11:00 -2°C° 0 mm 2 mps 743 mmHg 77%
    12:00 -2°C° 0 mm 2 mps 743 mmHg 76%
    13:00 -2°C° 0 mm 2 mps 743 mmHg 75%
    14:00 -2°C° 0 mm 2 mps 743 mmHg 78%
    15:00 -2°C° 0 mm 2 mps 743 mmHg 81%
    16:00 -2°C° 0 mm 2 mps 743 mmHg 84%
    17:00 -2°C° 0 mm 2 mps 743 mmHg 86%
    18:00 -2°C° 0 mm 2 mps 744 mmHg 88%
    19:00 -2°C° 0 mm 2 mps 744 mmHg 91%
    20:00 -2°C° 0 mm 2 mps 744 mmHg 91%
    21:00 -2°C° 0 mm 2 mps 744 mmHg 91%
    22:00 -2°C° 0 mm 2 mps 744 mmHg 91%
    23:00 -2°C° 0 mm 2 mps 744 mmHg 92%

    Tomorrow, 15 December, Saturday

    Time Temperature Precipitation Wind Pressure Humidity
    00:00 -2°C° 0 mm 3 mps 744 mmHg 92%
    01:00 -4°C° 0 mm 3 mps 744 mmHg 92%
    02:00 -4°C° 0 mm 3 mps 744 mmHg 91%
    03:00 -4°C° 0 mm 3 mps 744 mmHg 90%
    04:00 -4°C° 0 mm 3 mps 744 mmHg 89%
    05:00 -4°C° 0 mm 3 mps 744 mmHg 88%
    06:00 -4°C° 0 mm 3 mps 744 mmHg 87%
    07:00 -5°C° 0 mm 3 mps 744 mmHg 86%
    08:00 -4°C° 0 mm 4 mps 745 mmHg 84%
    09:00 -4°C° 0 mm 4 mps 745 mmHg 81%
    10:00 -5°C° 0 mm 5 mps 745 mmHg 79%
    11:00 -5°C° 0 mm 5 mps 745 mmHg 78%
    12:00 -4°C° 0 mm 5 mps 744 mmHg 76%
    13:00 -4°C° 0 mm 5 mps 744 mmHg 75%
    14:00 -4°C° 0.1 mm 5 mps 744 mmHg 75%
    15:00 -5°C° 0.1 mm 5 mps 744 mmHg 76%
    16:00 -5°C° 0.1 mm 5 mps 744 mmHg 76%
    17:00 -5°C° 0.1 mm 5 mps 744 mmHg 76%
    18:00 -5°C° 0.1 mm 5 mps 744 mmHg 77%
    19:00 -5°C° 0.1 mm 5 mps 744 mmHg 77%
    20:00 -5°C° 0.1 mm 5 mps 744 mmHg 79%
    21:00 -5°C° 0.1 mm 5 mps 743 mmHg 81%
    22:00 -5°C° 0.1 mm 5 mps 743 mmHg 83%
    23:00 -5°C° 0.2 mm 5 mps 743 mmHg 84%

    Day after tomorrow, 16 December, Sunday

    Time Temperature Precipitation Wind Pressure Humidity
    00:00 -5°C° 0.2 mm 5 mps 742 mmHg 85%
    01:00 -6°C° 0.2 mm 5 mps 742 mmHg 85%
    02:00 -6°C° 0.2 mm 5 mps 742 mmHg 86%
    03:00 -6°C° 0.2 mm 5 mps 741 mmHg 87%
    04:00 -5°C° 0.2 mm 4 mps 741 mmHg 88%
    05:00 -4°C° 0.1 mm 4 mps 741 mmHg 88%
    06:00 -4°C° 0.1 mm 3 mps 741 mmHg 89%
    07:00 -4°C° 0.1 mm 3 mps 741 mmHg 90%
    08:00 -4°C° 0.1 mm 3 mps 741 mmHg 89%
    09:00 -4°C° 0.1 mm 3 mps 741 mmHg 88%
    10:00 -2°C° 0.1 mm 3 mps 741 mmHg 88%
    11:00 -2°C° 0.1 mm 2 mps 740 mmHg 87%
    12:00 -2°C° 0.1 mm 2 mps 740 mmHg 87%
    13:00 +1°C° 0.1 mm 1 mps 740 mmHg 86%
    14:00 0°C° 0.1 mm 1 mps 740 mmHg 88%
    15:00 0°C° 0.1 mm 1 mps 740 mmHg 91%
    16:00 0°C° 0.1 mm 1 mps 739 mmHg 93%
    17:00 -1°C° 0.1 mm 1 mps 740 mmHg 93%
    18:00 -1°C° 0.1 mm 1 mps 740 mmHg 94%
    19:00 -1°C° 0.1 mm 1 mps 740 mmHg 94%
    20:00 -1°C° 0 mm 1 mps 740 mmHg 94%
    21:00 -1°C° 0 mm 1 mps 740 mmHg 93%
    22:00 -3°C° 0 mm 0 mps 740 mmHg 93%
    23:00 -3°C° 0 mm 0 mps 740 mmHg 92%

    17 December, Monday

    Time Temperature Precipitation Wind Pressure Humidity
    00:00 -2°C° 0 mm 1 mps 740 mmHg 92%
    01:00 -2°C° 0 mm 1 mps 740 mmHg 91%
    02:00 -2°C° 0 mm 1 mps 740 mmHg 91%
    03:00 -3°C° 0 mm 0 mps 740 mmHg 91%
    04:00 -3°C° 0 mm 0 mps 740 mmHg 91%
    05:00 -3°C° 0 mm 0 mps 740 mmHg 91%
    06:00 -3°C° 0 mm 0 mps 740 mmHg 90%
    07:00 -3°C° 0 mm 0 mps 740 mmHg 90%
    08:00 -2°C° 0 mm 0 mps 740 mmHg 88%
    09:00 -2°C° 0 mm 0 mps 741 mmHg 87%
    10:00 -1°C° 0 mm 0 mps 741 mmHg 85%
    11:00 -1°C° 0 mm 0 mps 741 mmHg 84%
    12:00 0°C° 0 mm 0 mps 741 mmHg 83%
    13:00 0°C° 0 mm 0 mps 741 mmHg 82%
    14:00 0°C° 0 mm 1 mps 741 mmHg 84%
    15:00 0°C° 0 mm 1 mps 741 mmHg 86%
    16:00 -1°C° 0 mm 1 mps 741 mmHg 88%
    17:00 -1°C° 0 mm 1 mps 742 mmHg 88%
    18:00 -1°C° 0 mm 1 mps 742 mmHg 88%
    19:00 -1°C° 0 mm 1 mps 742 mmHg 89%
    20:00 -1°C° 0 mm 1 mps 743 mmHg 89%
    21:00 -3°C° 0 mm 2 mps 743 mmHg 89%
    22:00 -4°C° 0 mm 2 mps 743 mmHg 89%
    23:00 -4°C° 0 mm 2 mps 744 mmHg 89%

    18 December, Tuesday

    Time Temperature Precipitation Wind Pressure Humidity
    00:00 -3°C° 0 mm 2 mps 744 mmHg 89%
    01:00 -3°C° 0 mm 2 mps 744 mmHg 89%
    02:00 -3°C° 0 mm 2 mps 744 mmHg 89%
    03:00 -3°C° 0 mm 2 mps 744 mmHg 89%
    04:00 -2°C° 0 mm 2 mps 745 mmHg 90%
    05:00 -2°C° 0 mm 2 mps 745 mmHg 90%
    06:00 -2°C° 0 mm 2 mps 745 mmHg 90%
    07:00 -2°C° 0 mm 2 mps 745 mmHg 90%
    08:00 -2°C° 0 mm 2 mps 745 mmHg 89%
    09:00 -1°C° 0 mm 2 mps 746 mmHg 87%
    10:00 -1°C° 0 mm 2 mps 746 mmHg 86%
    11:00 +1°C° 0 mm 2 mps 746 mmHg 86%
    12:00 +2°C° 0 mm 1 mps 745 mmHg 85%
    13:00 +2°C° 0 mm 1 mps 745 mmHg 85%
    14:00 +2°C° 0 mm 1 mps 745 mmHg 87%
    15:00 +1°C° 0 mm 0 mps 745 mmHg 88%
    16:00 0°C° 0 mm 0 mps 745 mmHg 90%
    17:00 0°C° 0 mm 0 mps 745 mmHg 91%
    18:00 0°C° 0 mm 0 mps 745 mmHg 91%
    19:00 +1°C° 0 mm 1 mps 746 mmHg 91%
    20:00 0°C° 0 mm 1 mps 745 mmHg 92%
    21:00 0°C° 0 mm 1 mps 745 mmHg 92%
    22:00 -1°C° 0 mm 1 mps 745 mmHg 92%
    23:00 -1°C° 0 mm 1 mps 745 mmHg 92%

    19 December, Wednesday

    Time Temperature Precipitation Wind Pressure Humidity
    00:00 -3°C° 0 mm 2 mps 745 mmHg 91%
    01:00 -3°C° 0 mm 2 mps 744 mmHg 91%
    02:00 -3°C° 0 mm 2 mps 744 mmHg 91%
    03:00 -3°C° 0 mm 2 mps 744 mmHg 90%
    04:00 -3°C° 0 mm 2 mps 744 mmHg 90%
    05:00 -3°C° 0 mm 2 mps 743 mmHg 89%
    06:00 -3°C° 0 mm 2 mps 743 mmHg 88%
    07:00 -3°C° 0 mm 2 mps 743 mmHg 87%
    08:00 -3°C° 0 mm 2 mps 743 mmHg 85%
    09:00 -2°C° 0 mm 2 mps 743 mmHg 82%
    10:00 -1°C° 0 mm 2 mps 743 mmHg 80%
    11:00 -1°C° 0 mm 2 mps 742 mmHg 79%
    12:00 +1°C° 0 mm 2 mps 742 mmHg 79%
    13:00 +1°C° 0 mm 2 mps 742 mmHg 78%
    14:00 -1°C° 0 mm 2 mps 741 mmHg 80%
    15:00 -1°C° 0 mm 2 mps 741 mmHg 81%
    16:00 -2°C° 0 mm 2 mps 741 mmHg 83%
    17:00 -2°C° 0 mm 2 mps 741 mmHg 83%
    18:00 -2°C° 0 mm 2 mps 741 mmHg 83%
    19:00 -2°C° 0 mm 2 mps 741 mmHg 83%
    20:00 -3°C° 0 mm 2 mps 740 mmHg 83%
    21:00 -3°C° 0 mm 2 mps 740 mmHg 82%
    22:00 -3°C° 0 mm 2 mps 740 mmHg 82%
    23:00 -3°C° 0 mm 2 mps 740 mmHg 81%
    Show more